MET'MAP v2.0
soon released !

Expected late october,
this new version will be
more efficient, smarter,
and hosted on a brand new
server x3 powerfull...
...and still free !


Not compatible ?
Try the mobile version !

LOG IN : | Subscribe | Disclaimer | Who is Orbifly ? |
ICAO code :

TAF - LFCG St Girons Antichan - 28 May 2020 10:55 UTC
Data Sources :     NOAA   


- Airport Elevation : 1368 ft
- No reported NOTAMs.


LFCG - St Girons Antichan

Latest METAR recorded : 0000/00/00 L :28 TAF LELL 280800Z 2809/2909 VRB04KT 9999 FEW020 TX27/2812Z TN15/2906Z BECMG 2810/2812 20008KT BECMG 2818/2821 26005KT
NO TAF


MET'MAP, your aeronautical weather chart ! - Copyright ORBIFLY December 2007

Programming & Development : Alexandra Zaïnal
Co-Developer : Marc-Olivier Méhu
Technical & hardware support : Manuel Goepfert
Concept & Financing : Baudouin d'Aumeries